| time (UTC) | temp C | wind direction | speed KPH | gust KPH | rain 1hr cm | rain 24hr cm | rain mn cm | humidity % | barometer mb |
| 20260506165122 | 11 | 209 | 0.0 | 0.0 | 0.00 | 0.00 | 0.00 | 99 | 1027.8 |
| 20260506162117 | 11 | 191 | 0.0 | 0.0 | 0.00 | 0.00 | 0.00 | 99 | 1027.3 |
| 20260506155116 | 11 | 193 | 0.0 | 0.0 | 0.00 | 0.00 | 0.00 | 99 | 1027.7 |
| 20260506151850 | 11 | 192 | 0.0 | 0.0 | 0.00 | 0.00 | 0.00 | 99 | 1027.7 |
| 20260506144849 | 11 | 192 | 0.0 | 0.0 | 0.00 | 0.00 | 0.00 | 99 | 1027.5 |
| 20260506141846 | 11 | 190 | 1.6 | 1.6 | 0.00 | 0.00 | 0.00 | 99 | 1027.1 |
| 20260506134846 | 11 | 186 | 1.6 | 1.6 | 0.00 | 0.00 | 0.00 | 99 | 1027.0 |
| 20260506131845 | 11 | 196 | 0.0 | 0.0 | 0.00 | 0.00 | 0.00 | 99 | 1026.7 |
| 20260506124841 | 11 | 193 | 0.0 | 1.6 | 0.00 | 0.00 | 0.00 | 98 | 1026.9 |
| 20260506121837 | 11 | 194 | 0.0 | 0.0 | 0.00 | 0.00 | 0.00 | 97 | 1026.4 |
| 20260506114833 | 11 | 195 | 0.0 | 0.0 | 0.00 | 0.00 | 0.00 | 96 | 1026.3 |
| 20260506111829 | 11 | 203 | 0.0 | 0.0 | 0.00 | 0.00 | 0.00 | 95 | 1026.3 |
| 20260506104829 | 11 | 208 | 0.0 | 0.0 | 0.00 | 0.00 | 0.00 | 94 | 1026.0 |
| 20260506101825 | 11 | 206 | 0.0 | 0.0 | 0.00 | 0.00 | 0.00 | 93 | 1026.0 |
| 20260506094820 | 12 | 208 | 0.0 | 1.6 | 0.00 | 0.00 | 0.00 | 94 | 1025.7 |
| 20260506091818 | 12 | 206 | 0.0 | 0.0 | 0.00 | 0.00 | 0.00 | 94 | 1025.1 |
| 20260506084817 | 12 | 204 | 0.0 | 0.0 | 0.00 | 0.00 | 0.00 | 94 | 1025.1 |
| 20260506081816 | 12 | 189 | 0.0 | 1.6 | 0.00 | 0.00 | 0.00 | 93 | 1025.1 |
| 20260506071807 | 11 | 199 | 0.0 | 0.0 | 0.00 | 0.00 | 0.00 | 97 | 1024.9 |
| 20260506061807 | 12 | 208 | 0.0 | 0.0 | 0.00 | 0.00 | 0.00 | 94 | 1023.9 |
| 20260506044758 | 13 | 197 | 0.0 | 1.6 | 0.00 | 0.00 | 0.00 | 93 | 1023.3 |
| 20260506041756 | 14 | 201 | 0.0 | 0.0 | 0.00 | 0.00 | 0.00 | 89 | 1023.4 |
| 20260506034756 | 14 | 207 | 0.0 | 0.0 | 0.00 | 0.00 | 0.00 | 88 | 1023.2 |
| 20260506031755 | 15 | 197 | 0.0 | 0.0 | 0.00 | 0.00 | 0.00 | 85 | 1022.6 |
| 20260506024755 | 15 | 207 | 0.0 | 0.0 | 0.00 | 0.00 | 0.00 | 84 | 1022.6 |
| 20260506021755 | 16 | 206 | 0.0 | 0.0 | 0.00 | 0.00 | 0.00 | 82 | 1022.6 |
| 20260506014754 | 17 | 210 | 0.0 | 0.0 | 0.00 | 0.00 | 0.00 | 77 | 1022.1 |
| 20260506011753 | 17 | 207 | 0.0 | 0.0 | 0.00 | 0.00 | 0.00 | 77 | 1022.3 |
| 20260506004752 | 17 | 201 | 1.6 | 1.6 | 0.00 | 0.00 | 0.00 | 77 | 1022.9 |
| 20260506001748 | 17 | 216 | 0.0 | 1.6 | 0.00 | 0.00 | 0.00 | 76 | 1022.9 |
| 20260505234743 | 17 | 65 | 0.0 | 1.6 | 0.00 | 0.00 | 0.00 | 75 | 1023.2 |
| 20260505231743 | 17 | 221 | 1.6 | 1.6 | 0.00 | 0.00 | 0.00 | 75 | 1023.5 |
| 20260505224743 | 17 | 198 | 1.6 | 1.6 | 0.00 | 0.00 | 0.00 | 77 | 1023.7 |
| 20260505221742 | 16 | 190 | 1.6 | 1.6 | 0.00 | 0.00 | 0.00 | 80 | 1023.8 |
| 20260505214738 | 16 | 210 | 0.0 | 0.0 | 0.00 | 0.00 | 0.00 | 79 | 1024.1 |
| 20260505211737 | 15 | 208 | 0.0 | 1.6 | 0.00 | 0.00 | 0.00 | 81 | 1024.0 |
| 20260505204737 | 15 | 207 | 0.0 | 0.0 | 0.00 | 0.00 | 0.00 | 84 | 1024.3 |
| 20260505201735 | 15 | 215 | 1.6 | 1.6 | 0.00 | 0.00 | 0.00 | 84 | 1024.1 |
| 20260505194730 | 15 | 212 | 0.0 | 0.0 | 0.00 | 0.00 | 0.00 | 85 | 1024.1 |
| 20260505191725 | 14 | 211 | 0.0 | 0.0 | 0.00 | 0.00 | 0.00 | 85 | 1024.0 |
| 20260505184720 | 14 | 208 | 0.0 | 0.0 | 0.00 | 0.00 | 0.00 | 87 | 1024.1 |
| 20260505181719 | 14 | 206 | 0.0 | 0.0 | 0.00 | 0.00 | 0.00 | 87 | 1024.0 |
| 20260505174717 | 13 | 176 | 1.6 | 1.6 | 0.00 | 0.00 | 0.00 | 88 | 1023.9 |
| 20260505171712 | 13 | 206 | 0.0 | 0.0 | 0.00 | 0.00 | 0.00 | 88 | 1024.0 |